User: anonymous   Login
Location: Sabalos
(43.2860°N, 0.1414°E)
Time: 09:35:00
(UTC+00:00)
Language:

Helios 1B rocket - Orbit

View from above orbital plane
View from above orbital plane
View from above satellite
View from above satellite

Ground track
Ground track

The orbit data is extracted from the following two-line orbital elements,

1 25979U 99064C   20269.83887121 -.00000020 +00000-0 +38006-5 0  9992
2 25979 098.1432 191.9300 0005878 332.5053 027.5855 14.96044603129037
Epoch (UTC): 25 September 2020 20:07:58
Eccentricity: 0.0005878
inclination: 98.1432°
perigee height: 575 km
apogee height: 583 km
right ascension of ascending node: 191.9300°
argument of perigee: 332.5053°
revolutions per day: 14.96044603
mean anomaly at epoch: 27.5855°
orbit number at epoch: 12903

The dashed part of the orbit path shows where the satellite is in the earth's shadow,  

DLR